GFSNW_925_spd_051.txt.gz
Wind_Speed
36 35 34 32 30 29 26 7 5 19 33 7 6 20 13 20 13 18 18 9 14 14 14 13 8 11 11 10 14 20 15 4 11 21 17 20 13 11 9 5 5 2 5 5
38 37 36 36 34 33 20 4 3 20 30 11 16 20 27 20 18 18 11 17 8 8 14 5 8 7 12 8 10 14 12 5 10 7 6 8 10 9 5 7 5 6 6 5
41 40 40 39 38 39 29 5 5 5 11 11 24 22 23 21 12 24 23 22 19 20 18 13 10 16 7 15 6 11 15 9 9 14 6 4 4 7 10 8 4 5 6 3
41 42 41 42 42 43 37 5 6 7 14 21 19 19 4 21 17 17 13 13 22 21 14 14 10 7 11 16 19 7 7 8 17 8 11 13 16 14 16 15 9 7 7 7
33 42 42 45 46 46 33 6 6 7 4 16 24 20 26 28 16 16 15 20 21 15 17 16 10 3 4 4 15 9 5 4 9 12 11 7 13 11 9 6 10 12 11 15
33 37 41 44 49 49 18 14 11 6 12 12 15 29 33 24 15 21 16 19 17 19 24 16 1 6 5 5 8 11 7 6 5 7 7 4 14 10 15 13 12 9 8 9
36 37 36 38 47 61 23 12 8 6 5 18 24 23 24 23 18 21 14 12 17 35 3 2 4 4 5 7 11 9 11 4 5 4 4 13 7 9 6 16 14 9 3 4
40 40 39 37 37 44 34 13 10 9 12 17 19 24 18 19 18 18 17 19 18 4 7 3 4 5 6 5 12 12 15 1 3 6 11 5 11 3 3 5 7 4 5 6
44 44 43 44 45 47 43 17 23 3 14 14 22 16 18 13 15 17 22 19 7 3 7 5 7 4 3 3 6 13 13 4 4 1 7 14 3 6 7 4 11 8 6 7
47 48 49 48 47 46 38 16 31 1 3 11 12 15 15 13 11 11 12 11 6 5 3 9 6 8 5 5 2 2 9 3 5 3 3 6 5 8 4 8 3 10 9 7
46 50 53 52 49 47 44 15 33 20 2 7 10 3 2 10 11 9 3 4 6 3 8 4 4 4 10 6 7 7 8 5 3 3 3 7 6 6 11 4 11 13 11 5
38 38 47 51 49 46 43 11 34 33 3 4 2 11 20 4 3 4 3 3 3 5 3 2 1 2 4 7 3 17 12 6 6 8 7 6 4 4 5 8 5 2 4 5
37 39 45 48 50 46 46 16 27 21 5 4 1 3 8 9 6 5 3 3 5 4 5 4 2 5 4 6 10 5 5 5 5 4 5 10 13 6 8 1 10 12 4 3
37 40 43 46 48 46 44 24 25 21 4 3 2 9 5 11 12 1 6 10 7 3 4 3 4 2 3 4 5 5 5 9 7 3 5 2 5 7 3 8 17 15 17 3
33 45 44 43 49 48 34 25 30 19 4 4 4 3 5 10 15 5 20 5 2 2 1 2 2 3 1 3 1 5 4 6 5 5 8 7 9 9 9 8 9 17 10 12
40 42 43 44 47 44 30 4 23 28 6 2 2 3 6 8 9 8 6 4 1 2 3 2 3 6 6 2 3 5 6 3 4 4 2 4 1 6 4 6 6 5 6 14
41 42 47 48 41 31 4 5 13 37 5 1 3 2 3 8 5 2 1 2 2 2 2 3 2 4 6 2 1 15 16 15 11 11 5 4 7 2 2 4 5 6 5 7
48 48 46 37 26 17 9 26 34 24 3 2 3 1 4 4 2 1 3 2 3 1 2 2 3 2 3 3 10 15 18 15 16 13 7 3 4 5 7 6 7 8 8 8
45 39 34 24 11 3 6 18 10 12 6 2 2 3 3 3 2 2 1 3 2 4 4 3 2 1 4 9 12 13 15 14 14 9 9 10 9 8 6 8 9 8 11 11
27 10 3 3 4 28 17 6 3 2 3 1 2 2 2 2 1 2 2 2 3 3 4 5 3 3 5 12 11 9 13 14 15 9 11 11 12 11 13 13 11 12 12 13
5 3 4 15 8 2 2 3 3 1 1 1 2 3 4 2 3 2 1 1 1 2 3 5 2 3 9 12 11 10 10 11 11 9 10 11 10 10 12 15 15 14 14 15
7 14 10 4 2 2 4 3 2 1 1 3 1 2 3 2 2 2 1 0 1 2 4 4 3 4 8 9 10 12 11 11 13 13 14 14 15 14 14 13 14 17 21 22
6 4 3 1 3 5 4 2 2 2 4 4 3 1 3 2 2 1 2 1 1 2 4 4 3 7 7 7 7 10 11 12 14 15 19 21 20 22 20 14 21 25 25 24
4 3 5 4 5 4 4 3 3 2 2 4 3 2 2 1 2 1 2 3 3 4 4 3 5 9 9 9 9 9 11 13 14 14 17 17 19 20 25 25 24 27 25 26
5 5 6 5 3 4 3 4 3 2 3 2 0 2 2 3 3 4 3 4 5 6 4 2 5 9 10 10 10 10 11 12 13 16 15 19 22 23 24 26 28 29 28 28
4 7 4 4 3 4 3 3 3 3 4 2 1 3 3 4 3 5 6 4 3 2 3 4 5 9 11 11 10 11 15 17 18 21 23 24 24 23 25 29 29 29 28 26
4 3 3 2 1 2 4 4 5 3 2 3 3 5 4 3 4 4 4 3 4 5 6 6 8 9 10 11 13 18 21 20 21 21 22 22 23 26 26 21 24 27 27 27

GFSNW_925_spd_054.txt.gz
Wind_Speed
33 30 29 27 26 25 22 6 5 17 29 7 5 16 13 8 14 10 12 4 6 5 2 4 2 4 4 9 7 7 12 11 15 17 9 9 4 8 9 5 5 3 4 8
35 33 32 30 29 28 12 3 3 17 24 11 16 11 16 8 4 6 5 5 10 6 3 5 4 4 9 7 7 6 7 6 2 7 8 2 5 9 11 5 4 8 6 5
37 36 35 34 33 31 28 4 5 4 10 7 10 14 19 18 8 17 13 9 7 6 9 5 8 11 8 9 5 10 6 7 15 15 5 4 4 10 13 9 4 5 7 6
37 37 37 36 35 34 29 5 5 5 8 17 14 12 9 23 18 13 4 8 19 6 6 9 12 6 7 5 6 7 5 8 6 13 17 16 18 11 8 9 7 9 8 11
39 38 38 38 38 36 27 5 5 5 2 12 22 23 22 20 17 10 19 19 9 15 18 17 6 9 6 5 5 5 8 5 4 8 13 9 12 16 15 8 4 8 7 9
39 38 40 41 40 39 16 14 8 4 10 11 15 29 20 15 17 11 18 14 17 17 10 6 7 9 8 6 3 3 5 5 9 15 8 12 12 16 7 6 6 6 6 9
35 34 38 42 38 49 33 11 6 5 6 17 24 9 21 20 19 22 13 15 16 4 5 3 2 3 5 6 5 5 6 1 2 4 3 11 16 12 7 13 11 9 6 6
31 32 31 31 38 43 36 20 8 6 13 13 18 19 12 19 19 19 18 18 11 7 4 2 3 4 5 5 5 9 6 5 3 2 6 4 9 5 7 7 7 7 7 3
37 37 37 37 39 39 35 27 23 4 8 19 13 13 16 11 13 15 21 15 3 3 1 3 8 5 5 3 4 4 12 8 7 6 7 16 3 6 3 3 6 6 5 2
40 41 41 41 41 41 36 22 34 5 2 2 12 14 16 11 9 3 4 7 9 8 3 2 4 8 7 5 5 2 1 2 9 9 5 8 5 6 8 8 6 3 3 2
41 44 43 43 42 41 35 11 35 16 2 2 6 10 7 10 14 8 4 3 3 2 7 4 4 4 6 3 5 7 5 3 3 5 5 7 2 5 4 2 6 6 6 4
37 39 46 45 44 43 39 6 31 18 3 2 6 6 16 28 26 13 5 6 6 6 3 4 2 2 1 6 6 3 5 7 5 6 5 9 4 4 4 4 3 3 4 10
34 36 39 49 45 44 42 17 25 12 3 1 2 9 14 15 19 20 6 2 4 3 4 4 3 3 4 3 5 7 5 7 4 6 14 17 12 5 7 5 5 4 2 7
38 39 39 42 54 44 43 23 25 15 4 1 4 14 17 19 15 12 6 4 2 4 3 2 3 3 3 3 3 4 5 8 11 7 6 5 8 7 6 7 10 4 5 4
30 39 38 39 43 50 35 25 32 17 4 4 2 1 9 14 15 14 10 5 3 3 1 1 3 2 2 2 3 2 5 5 4 6 9 6 7 9 12 7 5 6 3 4
32 37 35 40 48 47 30 4 22 30 9 1 3 4 3 8 14 8 5 4 3 3 4 3 2 2 3 2 5 0 9 11 13 5 10 5 5 5 5 3 4 7 8 6
36 38 37 45 48 36 8 5 11 35 16 1 3 3 3 10 6 2 2 2 2 3 3 4 4 3 4 3 4 12 12 15 12 15 12 6 11 6 9 7 6 9 10 12
39 43 42 48 38 28 2 4 28 33 6 4 3 1 3 3 3 2 2 2 1 1 3 1 3 2 3 1 10 13 12 13 7 13 11 7 6 10 12 10 8 12 11 11
46 46 46 26 9 2 2 25 35 28 7 0 2 3 2 2 1 2 1 2 2 0 2 2 3 3 5 7 11 10 12 10 11 8 9 13 13 12 12 11 12 11 10 12
34 10 3 4 9 35 21 7 3 4 2 1 2 1 2 3 0 2 2 2 2 3 4 3 3 3 4 8 9 9 11 11 11 8 9 11 12 11 12 12 10 11 11 11
5 3 3 6 11 5 2 3 3 1 3 2 1 3 3 3 3 2 2 2 3 4 3 4 3 2 5 8 10 10 9 8 10 9 9 9 9 8 8 11 11 11 14 14
10 14 9 3 3 3 5 3 2 4 2 3 2 1 3 1 2 3 2 2 1 3 2 4 3 3 7 9 10 11 11 11 13 13 13 13 12 12 13 11 12 17 19 19
4 5 4 3 4 9 5 3 3 3 4 4 3 3 2 2 3 2 1 2 1 3 4 3 3 6 7 7 7 10 10 13 13 16 20 21 20 23 21 15 20 22 24 22
4 4 7 4 4 4 3 1 2 2 2 4 2 2 2 1 3 1 3 3 4 4 4 3 3 6 7 7 8 10 13 14 14 13 16 18 20 21 24 23 22 25 24 24
5 5 5 5 3 2 2 2 2 2 3 2 1 3 3 4 3 4 3 4 4 4 2 2 3 7 8 10 10 10 12 12 12 16 15 18 22 23 24 25 26 27 25 26
4 6 4 3 3 4 4 4 2 3 4 1 1 3 3 4 3 5 5 3 3 2 2 3 5 10 10 11 10 10 13 15 17 20 21 22 22 22 23 26 26 26 26 26
5 3 3 2 1 3 3 3 4 3 2 2 3 5 5 3 3 3 4 3 4 5 5 6 8 8 9 9 12 16 18 20 22 23 23 22 21 22 24 20 23 26 27 27

GFSNW_925_spd_057.txt.gz
Wind_Speed
31 31 30 29 26 23 21 7 6 22 32 6 4 10 7 9 12 3 3 4 3 3 6 3 2 3 4 8 7 5 9 5 13 19 8 3 4 7 8 5 4 2 4 9
36 34 32 29 29 25 9 3 3 21 24 10 12 4 11 10 6 8 3 3 5 4 2 3 3 6 6 10 9 0 2 3 10 8 4 5 6 5 7 3 3 8 7 6
37 34 32 31 32 29 27 3 5 4 7 2 15 8 9 13 12 7 3 3 2 1 3 3 5 5 5 14 6 8 4 4 7 12 7 4 4 8 7 10 6 4 8 9
38 36 34 33 33 31 25 5 4 5 7 14 9 15 8 15 12 12 1 5 13 5 2 3 4 9 12 4 4 3 4 2 7 12 10 13 8 7 8 7 10 12 10 10
39 38 37 35 34 33 26 5 4 4 2 14 20 15 15 14 16 6 9 13 7 5 11 8 6 12 5 6 3 4 1 2 7 6 8 8 14 16 20 14 7 8 6 6
41 39 38 36 36 37 15 12 7 3 8 13 16 20 18 14 12 10 20 8 7 8 14 9 10 10 7 9 11 4 3 3 4 4 12 9 10 12 17 8 6 7 8 9
41 40 39 38 39 43 25 10 6 5 5 13 13 15 22 23 18 19 4 11 9 7 5 8 7 8 13 11 9 6 4 4 3 1 6 4 7 6 12 15 14 8 6 6
36 37 37 37 39 43 37 20 8 7 9 8 16 16 19 19 19 16 16 13 7 4 4 3 4 3 4 8 9 9 6 4 3 3 4 8 18 6 4 8 19 13 11 9
31 30 31 38 42 45 43 30 18 5 5 15 10 17 16 9 10 12 8 11 3 3 1 2 4 3 4 4 1 8 5 4 4 3 3 6 5 10 14 6 14 6 9 9
31 31 31 32 32 35 45 18 38 5 5 6 14 15 14 8 7 5 6 6 6 7 2 2 3 5 4 3 4 4 5 2 6 4 3 7 7 10 13 5 13 4 5 5
35 35 36 36 34 33 32 11 22 21 5 2 3 15 6 7 11 5 5 3 1 3 5 3 3 3 5 5 4 5 6 5 4 4 4 8 5 7 4 12 8 4 3 3
39 40 38 37 37 37 36 8 25 22 3 2 5 8 8 18 24 12 6 6 5 5 4 3 1 2 1 4 3 2 2 5 5 7 6 6 4 5 7 19 21 7 3 3
33 37 40 40 39 38 38 14 22 8 1 2 3 6 11 8 9 15 6 3 5 4 4 4 3 5 3 3 5 4 2 4 5 2 7 15 13 12 15 22 21 8 5 5
32 33 34 37 42 41 37 21 26 12 2 2 3 8 6 15 11 11 21 4 4 4 2 2 2 2 3 4 4 4 5 5 3 7 8 11 15 17 20 17 15 10 6 7
32 31 31 35 36 43 29 26 31 18 3 4 2 3 8 16 23 12 12 12 5 3 2 2 2 2 2 2 2 1 3 3 1 3 8 9 10 10 11 8 4 5 5 4
29 32 34 33 35 46 31 4 29 29 5 2 2 2 3 13 17 9 5 4 2 3 4 2 3 3 2 3 4 3 6 6 5 5 8 17 16 3 14 8 9 10 10 11
27 36 35 33 39 38 8 5 14 37 10 3 1 2 3 16 10 3 3 1 1 2 3 3 3 3 2 1 3 5 6 8 8 9 11 6 8 7 13 11 9 11 12 13
36 37 38 41 44 27 2 5 27 32 9 1 1 3 3 1 3 4 2 3 1 1 2 1 3 1 2 2 6 7 8 10 6 10 6 6 4 10 15 12 12 15 14 13
40 53 50 31 7 3 7 28 29 16 5 2 2 3 3 2 1 3 2 2 2 0 2 3 2 2 2 5 7 9 9 7 10 15 5 8 11 10 12 12 14 13 13 13
40 22 4 3 6 35 28 7 3 2 2 2 1 2 2 3 2 2 3 1 2 3 4 3 3 3 7 8 8 8 9 8 7 10 5 8 7 7 9 10 11 12 11 12
5 3 3 21 23 7 3 3 3 3 2 2 0 2 4 3 3 3 1 3 3 3 3 3 2 2 3 6 8 9 9 8 8 7 9 8 8 8 7 10 12 11 15 15
6 16 14 8 1 2 4 3 0 3 2 2 3 2 3 2 2 3 2 3 3 2 3 3 2 3 6 6 8 9 8 9 10 12 10 10 12 11 11 11 12 19 21 20
5 6 5 4 4 9 5 4 3 3 4 3 2 3 2 2 3 3 2 3 3 2 3 3 2 4 6 7 7 9 10 12 12 14 17 17 18 18 18 15 19 22 22 21
5 5 7 4 5 4 2 1 2 2 2 4 2 3 3 2 3 2 3 2 4 3 3 2 2 6 6 6 7 9 10 11 12 13 16 16 17 19 25 25 23 25 23 22
5 5 5 4 2 2 2 3 2 3 3 2 2 3 3 4 4 3 3 5 4 3 1 1 3 5 7 8 8 8 9 9 11 14 14 17 20 22 24 25 25 25 24 25
4 7 4 3 3 5 4 4 3 3 4 1 2 3 4 4 2 5 4 3 3 1 2 3 5 8 9 10 10 10 15 15 15 17 19 21 21 21 23 25 25 26 26 26
5 3 3 1 1 2 3 3 4 3 2 3 3 5 5 3 3 3 4 3 3 5 6 6 8 9 9 9 12 14 15 16 18 20 20 18 18 20 21 19 21 24 25 26

GFSNW_925_spd_060.txt.gz
Wind_Speed
27 26 24 23 23 22 19 6 6 10 30 6 2 3 7 6 10 3 4 3 5 3 6 6 7 6 6 13 6 5 5 3 5 10 6 2 4 7 9 4 4 3 3 8
29 28 27 27 26 23 11 4 4 10 21 9 5 6 4 4 6 3 2 3 3 4 4 4 4 6 7 13 15 6 4 2 2 7 4 3 4 6 5 2 3 7 6 5
31 30 31 29 29 26 21 2 6 3 5 3 12 8 7 7 7 15 4 3 1 3 4 3 5 8 6 15 7 7 1 1 1 2 2 2 3 7 10 8 4 3 5 5
34 34 33 33 30 29 22 5 4 4 5 7 11 14 9 12 8 8 5 4 5 2 3 4 3 3 5 6 6 4 2 2 2 4 4 6 12 9 6 9 6 8 5 8
37 36 37 35 33 31 24 4 4 4 2 11 16 15 16 14 13 6 5 9 4 3 4 6 5 5 2 5 5 6 4 1 1 3 10 12 6 9 10 8 5 6 7 8
40 39 38 38 36 34 14 14 7 3 6 10 13 10 13 17 9 5 11 3 5 6 13 9 12 9 8 9 5 4 4 2 2 1 5 11 4 3 6 9 10 7 12 8
40 40 40 40 40 40 25 9 6 5 4 10 12 17 16 13 17 10 2 10 9 3 4 5 5 8 13 12 13 9 6 3 2 2 3 2 5 11 7 7 11 7 6 5
41 41 41 41 42 42 33 19 9 5 9 6 13 15 20 16 14 16 14 14 3 1 3 3 4 3 4 6 13 10 11 4 4 3 3 4 9 2 4 3 9 6 8 12
40 41 42 40 43 43 40 32 17 7 5 11 10 14 16 12 13 10 14 12 3 3 0 1 3 2 3 3 2 4 6 1 3 2 3 4 4 3 4 5 11 10 14 12
29 27 29 35 37 40 38 19 37 3 5 7 13 12 10 6 8 3 4 4 4 6 2 1 2 3 2 3 1 3 4 3 9 4 5 6 5 5 3 0 7 8 11 16
30 29 27 28 35 40 39 24 33 20 2 5 16 11 8 7 10 6 4 2 1 2 4 3 4 2 4 2 4 4 5 5 3 3 1 9 5 1 3 4 4 3 10 8
35 32 30 30 28 26 39 4 30 34 7 0 7 13 18 26 21 10 9 6 5 5 3 2 2 1 1 4 2 1 2 6 5 7 7 4 3 5 6 3 5 4 7 17
32 37 35 32 33 31 29 12 19 10 4 2 4 6 21 20 29 25 5 3 4 4 3 4 3 2 4 3 5 4 3 4 3 1 3 5 5 6 6 6 10 9 9 16
29 31 35 36 34 36 34 15 22 9 2 2 3 5 9 20 20 21 8 1 3 4 2 2 3 3 3 3 4 5 5 4 4 5 4 7 2 5 11 17 14 16 18 12
30 31 34 37 37 35 33 21 27 22 1 2 2 4 9 22 21 15 7 4 3 2 1 2 2 2 2 1 1 2 2 1 2 4 1 3 5 6 9 12 16 15 14 5
29 31 34 34 38 37 26 3 22 27 9 2 3 1 3 14 18 12 7 6 3 3 4 3 3 3 3 2 2 3 2 5 6 5 9 9 12 2 10 9 14 13 13 13
30 31 30 31 33 39 8 4 14 36 18 2 2 2 3 8 4 2 2 2 2 2 3 3 3 3 4 2 2 5 7 9 10 7 10 3 8 5 10 11 11 9 9 14
31 32 29 34 40 22 3 3 28 40 5 2 2 3 3 10 3 3 2 2 2 1 3 1 4 1 2 2 3 5 7 11 9 9 9 9 6 8 9 8 4 8 12 14
33 40 42 33 8 3 8 32 29 11 3 3 2 3 4 3 2 2 2 2 2 2 1 1 3 2 1 5 6 8 9 9 12 14 13 6 5 7 8 9 10 9 12 15
47 26 5 3 6 45 31 6 3 2 1 1 2 2 3 2 2 2 3 2 3 3 3 3 3 2 6 7 6 7 9 11 10 10 6 10 7 7 9 11 10 8 11 10
6 2 3 28 20 5 2 3 3 3 2 2 1 2 3 2 3 3 1 3 3 4 1 3 2 2 2 5 7 8 8 8 8 6 7 8 7 7 7 9 11 11 14 12
12 16 13 8 6 3 4 2 2 1 0 1 2 2 3 3 3 3 1 3 1 2 2 3 2 2 6 6 7 9 8 8 9 11 10 10 10 11 9 9 10 16 19 18
7 6 4 3 4 8 4 2 2 2 4 4 2 3 2 2 3 3 2 2 3 2 3 2 2 5 6 6 6 8 10 12 12 12 15 16 18 19 17 15 18 21 21 19
4 4 7 4 5 3 1 1 2 2 2 3 2 3 2 2 3 2 4 2 3 3 3 2 2 5 6 6 7 8 9 10 11 11 15 16 18 19 22 23 22 22 22 22
4 5 5 4 2 2 2 3 1 3 3 2 2 3 3 4 5 3 3 4 4 3 1 1 2 5 7 8 7 8 9 9 10 14 14 17 19 20 23 24 24 24 23 22
4 6 4 2 2 4 3 3 2 4 4 1 3 3 4 5 3 5 4 3 2 1 2 2 4 6 7 7 8 9 13 14 14 16 17 18 20 20 21 24 24 24 24 23
5 4 2 1 1 1 2 3 4 4 2 3 3 5 5 3 3 3 3 1 2 3 3 4 5 6 6 7 10 12 14 14 15 17 18 19 19 19 20 18 20 22 23 23

GFSNW_925_spd_063.txt.gz
Wind_Speed
24 19 18 17 18 16 9 3 4 5 22 6 2 3 7 6 4 2 4 2 4 3 5 5 6 7 6 10 13 3 3 2 3 4 2 4 4 8 10 5 5 1 1 8
25 21 19 19 20 15 5 3 3 8 13 6 10 3 5 5 5 4 0 1 2 2 3 4 4 5 7 13 10 6 5 3 2 4 3 2 5 5 4 2 1 12 7 4
27 23 21 21 22 19 15 3 3 4 6 6 11 8 7 6 5 4 4 3 2 3 3 2 4 4 6 9 6 10 3 2 1 4 3 3 2 3 9 11 4 5 6 7
27 25 24 23 25 23 13 4 4 4 4 11 11 14 12 13 8 7 3 4 11 6 5 4 5 6 5 8 9 5 5 2 4 5 4 3 3 8 9 9 11 10 9 9
28 28 28 29 29 26 17 3 4 4 6 4 16 12 13 14 11 8 4 7 2 7 7 6 4 5 4 3 7 7 8 1 1 2 4 2 6 8 6 6 4 7 10 10
35 33 33 33 32 28 11 12 6 3 6 6 7 5 12 15 12 4 11 5 6 9 11 7 10 9 9 10 7 5 4 1 1 2 4 5 1 2 1 1 1 3 4 10
39 38 38 37 37 36 26 6 6 5 9 9 11 10 12 13 18 12 8 11 12 1 4 9 7 7 10 11 11 9 5 2 2 1 4 2 2 1 4 3 1 4 2 9
43 42 42 40 39 39 33 18 8 5 7 10 11 13 14 12 7 15 14 9 3 2 1 3 5 2 2 7 11 14 12 4 2 2 5 4 8 2 3 3 3 9 7 10
42 40 40 40 39 39 36 29 27 4 7 14 13 11 15 11 9 6 9 4 7 5 3 2 3 2 2 1 3 6 11 9 3 3 3 6 4 2 3 6 2 3 6 9
33 37 39 39 40 40 39 16 35 13 3 3 14 11 7 7 8 3 4 5 5 6 4 3 3 2 2 2 1 3 5 4 10 2 4 4 5 4 4 3 3 9 3 6
28 25 29 33 33 40 38 30 36 26 2 4 10 11 9 8 9 5 5 4 2 3 5 3 3 3 3 1 2 3 6 7 4 4 4 5 2 2 3 6 5 6 9 9
29 28 28 26 24 30 38 11 33 37 5 3 6 9 15 28 21 7 9 5 4 5 3 4 3 3 1 4 2 1 2 4 3 6 4 1 1 1 4 6 8 7 13 18
31 31 28 28 27 23 38 15 28 25 5 5 6 5 11 16 20 21 6 2 4 3 2 3 2 3 3 3 4 1 2 3 2 0 0 3 1 4 8 9 9 11 12 16
27 35 30 29 30 23 19 22 22 18 3 2 3 17 9 25 14 18 17 4 5 2 2 1 2 2 3 2 1 3 2 2 2 3 4 5 7 10 9 13 12 13 12 12
26 35 31 33 31 30 21 19 23 18 2 3 2 6 12 24 23 18 16 9 5 1 1 1 2 1 2 1 0 3 1 2 2 2 4 4 7 11 10 10 12 12 12 13
29 29 29 34 33 37 19 2 20 23 8 1 3 1 6 13 18 16 10 9 7 6 3 2 2 2 2 2 2 2 3 4 5 3 9 7 9 2 9 9 11 10 9 11
29 30 30 33 39 36 6 4 15 29 14 2 2 3 2 14 6 2 2 2 3 4 3 4 4 2 2 2 5 3 6 8 7 6 8 3 6 4 8 8 8 6 6 12
31 30 32 32 41 24 3 5 33 30 5 1 2 2 3 7 3 3 2 2 3 3 1 1 4 4 1 3 6 6 8 11 4 11 10 10 10 6 9 9 9 8 8 8
32 35 34 27 8 3 6 26 35 10 5 3 2 4 4 4 2 3 2 1 1 1 3 2 2 3 2 6 6 7 7 7 10 12 11 8 8 7 9 10 10 7 8 9
44 26 5 3 5 37 33 7 2 1 1 1 1 1 2 3 2 2 4 2 3 3 2 3 2 3 6 7 7 6 7 8 9 8 5 9 8 7 8 9 8 8 7 6
4 2 3 34 24 5 2 3 2 2 2 3 2 3 3 1 4 3 1 3 3 4 1 2 2 2 3 6 7 8 8 7 7 6 6 6 5 6 7 9 11 12 12 10
12 19 10 5 4 2 5 2 2 3 2 2 3 3 3 3 2 2 2 2 2 2 2 3 2 3 6 7 8 9 8 7 8 10 9 11 12 13 12 11 14 16 16 17
9 6 4 4 5 8 3 2 1 1 4 2 2 3 2 2 1 2 2 3 3 2 3 2 3 4 6 6 6 8 10 11 12 12 15 17 19 19 18 17 18 19 19 19
5 4 6 4 4 3 2 1 1 2 3 5 2 3 3 3 4 2 4 2 2 3 2 2 2 5 5 6 6 8 10 10 12 11 15 16 17 18 20 20 19 20 20 20
5 5 5 4 2 2 3 2 1 3 4 2 2 3 3 4 5 4 3 3 3 2 2 1 2 4 5 7 8 8 9 9 10 13 14 15 17 19 20 21 21 21 20 20
4 6 3 3 2 4 3 4 3 4 4 2 3 3 4 5 2 4 3 2 2 3 2 3 4 6 7 8 8 9 12 13 14 16 16 17 18 18 19 21 21 21 20 20
5 3 2 1 2 1 3 3 4 4 2 2 3 5 5 3 3 3 3 2 2 4 4 5 7 8 8 8 11 12 13 14 14 15 15 16 15 16 17 18 17 18 19 20

GFSNW_925_spd_066.txt.gz
Wind_Speed
23 22 19 17 17 14 9 5 4 4 17 7 5 9 13 5 14 14 15 7 7 8 7 6 0 1 4 14 20 9 14 5 6 16 5 16 17 20 18 9 11 8 10 10
25 21 21 20 18 16 8 4 6 7 12 7 11 7 14 12 12 13 9 10 6 4 5 4 3 4 9 11 15 12 4 7 10 9 7 4 11 12 12 17 13 12 9 3
21 22 22 22 20 19 13 3 3 7 6 9 10 16 16 15 13 17 13 7 6 8 10 7 7 6 2 10 8 19 8 5 11 9 5 1 7 10 13 12 11 13 15 16
25 24 25 24 22 20 15 4 5 6 5 10 15 12 7 15 15 14 12 11 16 15 11 12 13 14 13 5 3 4 8 0 1 2 0 1 1 3 9 13 13 13 10 11
25 25 25 24 24 22 18 4 4 3 9 6 15 16 14 20 20 13 12 13 9 11 18 17 16 7 7 3 6 3 5 3 4 1 1 5 7 7 6 10 9 7 8 10
28 26 24 26 27 26 14 8 9 4 10 13 12 10 15 14 14 13 14 11 7 12 12 7 10 10 10 12 7 5 3 2 3 2 2 4 7 13 5 5 4 4 5 4
34 34 33 32 33 30 23 8 10 5 11 11 14 13 11 17 16 19 10 12 11 2 6 9 11 12 13 13 13 10 4 2 4 2 6 3 3 4 0 7 8 6 6 6
39 40 39 38 37 36 30 25 9 6 12 16 19 19 14 14 17 18 12 8 5 3 4 5 5 5 4 9 17 14 13 5 3 4 6 7 5 4 2 2 5 6 6 7
34 41 42 42 41 40 35 29 24 8 7 16 19 16 17 13 12 9 6 5 5 3 3 3 4 4 1 5 6 8 12 11 6 2 4 6 3 6 2 2 4 7 6 9
33 32 36 43 44 42 37 19 35 15 8 8 13 16 15 12 9 6 5 6 5 6 4 5 4 4 1 3 4 6 8 8 12 9 6 4 2 1 1 6 2 9 9 10
27 27 25 43 43 42 41 32 36 26 5 13 8 17 17 13 11 5 6 4 4 3 6 4 4 3 4 3 3 7 8 9 7 10 7 6 5 2 4 6 6 9 11 13
30 27 27 29 37 42 41 13 33 36 7 3 12 27 22 24 20 10 10 3 3 6 5 5 3 4 1 4 3 5 4 3 3 7 7 5 6 5 7 7 6 8 10 12
28 30 28 25 29 38 39 25 32 25 5 5 10 6 15 10 17 21 8 5 6 5 4 2 3 4 4 4 6 1 5 2 2 1 3 2 4 5 10 10 8 8 10 12
25 26 30 30 25 28 26 26 31 26 3 3 4 17 16 15 11 18 17 5 9 3 2 3 3 3 2 2 3 3 3 1 2 4 5 3 5 8 11 12 11 12 12 12
23 27 31 30 32 25 21 23 29 31 8 5 7 4 15 24 26 17 15 9 7 4 4 4 4 2 3 4 2 6 2 3 4 4 5 3 5 10 11 11 13 13 12 12
24 27 32 29 35 28 16 2 14 27 13 1 3 2 6 19 22 23 14 10 4 2 1 2 3 3 3 3 5 3 6 6 7 2 6 5 8 6 8 8 10 10 10 10
27 28 34 37 40 30 3 2 16 27 17 2 2 4 3 18 14 7 8 11 2 3 2 4 5 5 4 5 9 9 5 6 6 7 9 3 9 5 7 8 8 9 9 11
28 31 36 45 39 17 1 4 37 27 5 2 2 3 3 10 4 3 2 3 5 4 2 1 4 4 5 2 5 6 7 7 3 9 7 6 7 5 7 7 7 6 8 8
33 33 44 38 9 3 7 30 25 8 2 3 2 5 4 7 3 2 3 2 2 2 3 3 2 3 1 6 6 7 8 7 9 11 6 5 6 5 7 7 7 7 7 8
46 33 6 3 6 26 30 5 2 1 2 3 2 0 3 6 3 2 3 2 3 3 2 3 2 3 7 7 7 7 7 8 9 9 6 8 5 5 7 7 7 7 7 9
8 2 3 29 26 6 2 3 3 3 4 4 2 2 3 2 4 3 1 3 4 3 3 2 3 3 4 7 7 7 7 7 7 6 5 5 5 4 5 7 9 11 12 13
10 15 12 7 4 2 3 3 3 2 2 3 4 4 3 2 1 2 3 3 3 2 1 3 3 3 6 6 6 6 6 6 7 7 6 7 8 9 10 10 12 14 15 16
11 6 4 2 3 4 3 6 3 3 2 1 3 3 2 2 3 2 3 2 3 2 1 2 3 4 5 6 5 7 9 8 9 10 11 12 14 15 14 15 15 16 18 16
5 5 5 4 3 3 2 2 2 2 2 2 2 4 1 2 3 2 3 2 2 2 3 3 3 5 5 6 6 7 8 9 9 11 14 15 16 17 17 16 15 17 19 17
5 5 5 4 2 2 3 2 1 2 3 1 4 4 3 4 4 3 3 3 3 3 3 3 4 5 5 7 7 8 8 8 8 11 13 15 16 17 18 17 17 17 17 17
4 6 3 3 1 4 3 4 4 5 4 2 3 3 4 4 2 3 3 2 2 3 4 4 5 7 7 7 8 9 11 12 13 14 15 16 15 16 17 17 17 17 17 18
4 4 4 3 3 4 4 4 6 5 2 3 3 4 4 2 3 3 3 3 5 7 6 5 7 7 7 7 10 10 11 12 13 13 14 14 13 13 14 15 14 15 15 16

GFSNW_925_spd_069.txt.gz
Wind_Speed
22 22 21 21 17 17 12 13 5 5 17 9 8 10 18 18 11 13 17 16 15 15 15 11 7 1 4 5 12 12 15 6 13 15 25 23 21 19 17 10 16 15 10 5
21 20 21 21 18 19 14 5 8 7 16 9 13 15 17 19 15 17 17 18 20 16 16 8 10 4 4 4 13 10 9 8 13 6 9 18 24 23 20 14 10 9 8 7
23 23 21 22 21 20 18 3 4 8 8 10 15 17 16 18 18 20 16 16 15 16 14 16 8 5 7 7 4 16 12 11 13 13 7 12 17 18 19 18 12 15 14 11
20 22 20 20 21 21 18 4 5 6 8 14 17 17 8 20 18 14 16 18 19 14 13 17 18 16 14 6 7 5 10 6 10 15 8 5 8 10 14 16 15 13 13 15
24 24 22 25 22 22 22 5 6 8 12 13 16 19 19 16 14 15 15 17 18 17 18 17 18 12 8 8 3 0 6 3 10 13 10 5 8 10 11 13 10 10 13 11
24 22 22 25 24 26 14 14 17 7 7 15 11 11 19 17 18 18 15 21 15 15 12 12 13 11 10 10 8 2 4 3 6 2 1 4 8 12 8 10 14 13 11 5
28 26 27 27 29 30 23 14 12 7 10 12 14 17 14 16 13 16 11 18 12 1 5 9 11 12 14 14 15 11 5 7 3 4 6 5 5 2 16 11 3 4 10 4
35 35 34 33 31 31 30 25 12 7 11 15 18 16 13 9 9 10 18 14 3 6 6 6 9 10 10 15 18 16 14 6 3 2 3 6 9 3 4 13 8 6 4 4
33 36 38 38 37 35 33 30 25 7 3 13 18 16 17 12 10 10 14 4 6 6 3 5 6 7 8 8 7 18 16 12 7 6 3 4 4 12 7 9 5 7 6 6
26 32 39 40 41 40 37 26 31 14 6 15 9 12 10 13 13 7 9 8 5 4 3 5 6 6 4 5 11 13 12 11 13 9 5 4 10 3 1 10 4 6 8 10
26 26 32 34 42 43 40 33 28 26 3 15 18 16 13 14 7 5 7 5 4 3 5 4 4 4 5 3 4 11 11 9 7 10 9 11 5 3 4 6 7 9 9 10
25 26 26 31 37 47 46 22 31 27 7 5 15 32 24 16 9 6 6 2 2 4 4 5 2 4 1 5 4 10 6 7 5 9 7 8 11 14 10 8 8 9 10 11
27 30 27 29 32 41 48 33 23 20 6 5 15 16 20 24 19 11 4 6 10 5 4 3 3 5 4 4 5 2 8 4 1 4 9 7 10 12 11 10 10 10 10 11
28 31 31 29 27 38 46 24 29 28 3 4 9 23 32 11 16 15 17 12 12 2 5 3 3 3 3 2 2 4 5 1 5 4 7 8 11 12 10 10 11 12 11 11
21 22 25 31 27 30 38 31 29 34 9 4 11 11 12 25 22 16 10 11 7 2 2 4 4 3 3 2 2 4 3 3 3 2 8 7 8 10 11 11 12 12 11 11
23 24 27 32 27 28 20 3 24 38 29 3 2 6 8 19 20 20 10 8 5 1 1 4 3 5 3 2 3 11 12 11 12 5 9 7 9 10 12 11 11 11 10 11
27 28 31 34 32 27 4 2 12 42 26 2 3 3 4 18 14 10 9 12 2 3 2 3 4 4 3 3 6 6 10 9 9 10 11 7 9 5 8 8 8 8 9 10
29 30 35 39 35 16 6 3 31 41 8 3 3 2 4 10 5 5 3 2 3 4 2 3 5 4 5 1 7 8 10 9 7 11 8 6 7 7 8 9 8 6 7 8
30 34 42 30 8 3 6 31 27 19 3 3 3 5 3 6 2 3 3 3 2 3 3 2 3 2 3 5 7 8 10 8 10 11 7 3 5 5 6 7 7 6 7 8
42 35 5 3 8 40 25 5 2 2 2 3 2 2 3 7 4 3 2 3 4 3 2 3 0 3 5 5 5 6 8 8 9 8 8 10 8 6 6 7 6 6 7 8
11 3 2 23 35 5 2 3 3 3 4 4 1 2 4 0 5 3 3 2 4 3 3 3 4 3 3 5 6 7 8 8 8 7 6 6 6 6 5 7 8 9 10 11
11 17 13 7 2 2 3 4 2 5 4 3 4 3 3 2 2 3 2 2 1 0 4 3 3 3 5 6 6 7 7 7 8 9 8 9 10 10 10 10 12 13 13 13
14 7 4 1 1 3 4 7 3 4 2 1 3 4 2 3 2 3 2 3 1 2 2 3 3 6 7 7 6 7 10 10 11 11 13 13 15 15 14 14 14 15 16 14
3 3 4 3 3 3 3 4 4 3 2 3 4 4 2 2 3 2 3 1 2 3 5 3 6 6 6 6 7 7 8 8 9 11 14 15 15 17 17 16 15 16 17 16
4 4 4 4 2 3 3 1 1 3 1 1 5 4 3 3 2 0 3 4 3 4 3 3 6 6 6 7 7 7 7 7 8 12 13 14 15 16 17 16 16 17 16 16
4 6 3 1 3 5 5 5 6 5 4 1 3 3 4 2 2 2 2 2 3 3 4 6 6 7 7 7 8 9 11 12 13 13 13 14 14 15 16 16 16 16 15 15
4 4 4 3 4 6 4 5 4 3 3 2 1 3 3 3 3 3 5 4 6 7 6 7 9 8 8 8 10 11 11 12 12 12 12 12 12 11 12 13 12 12 12 12

GFSNW_925_spd_072.txt.gz
Wind_Speed
20 20 20 17 15 14 12 7 5 12 31 8 4 10 18 21 17 11 12 12 13 15 16 12 9 9 6 7 5 3 5 5 9 19 16 20 17 20 18 9 19 12 6 1
21 20 21 20 17 16 8 4 9 19 12 8 13 15 22 22 21 19 13 16 15 16 16 15 9 14 10 7 4 5 6 5 6 9 10 16 16 19 19 12 10 8 4 5
22 21 20 19 19 17 12 3 4 9 7 10 14 18 18 19 21 20 17 16 16 13 16 17 7 5 7 7 4 7 5 6 9 10 9 8 14 22 22 17 4 7 7 7
22 22 20 19 18 17 12 3 5 5 8 11 16 18 7 16 18 17 16 15 19 16 15 14 16 18 11 11 8 3 3 5 8 13 16 16 14 16 21 22 19 15 11 16
21 22 22 19 14 14 11 3 4 8 6 11 16 17 18 19 14 17 16 16 18 19 17 14 14 15 11 6 8 3 3 4 11 10 15 15 16 12 14 11 15 15 11 6
24 22 22 21 23 21 6 10 19 6 7 10 11 10 19 19 18 14 18 10 16 12 12 6 7 13 2 13 7 5 3 1 4 4 13 7 9 12 10 10 10 8 9 4
27 26 25 25 24 25 15 7 10 5 12 12 12 15 12 12 17 17 15 12 12 10 8 5 11 11 14 14 15 11 7 5 2 4 10 4 9 12 12 4 8 8 7 4
30 29 30 29 27 25 24 19 9 5 10 13 17 16 8 14 10 10 12 13 3 7 4 3 6 10 14 19 17 16 12 6 2 3 4 6 4 2 9 12 5 5 3 10
24 28 32 33 32 26 28 25 22 6 3 11 17 14 15 10 10 10 12 5 6 6 3 1 8 7 8 9 8 20 16 11 6 4 4 1 3 6 14 9 3 6 6 14
21 20 27 33 35 33 29 20 26 9 6 14 13 10 8 11 7 8 4 5 4 4 2 2 4 9 9 7 8 19 14 12 11 7 4 5 6 14 17 2 3 5 10 13
22 22 23 30 35 36 34 30 23 21 4 13 17 17 12 12 5 4 4 5 3 3 2 3 6 5 3 5 7 15 12 10 7 9 7 6 4 7 2 7 6 7 13 13
26 25 25 26 34 38 37 22 26 21 6 5 12 18 26 24 16 2 1 4 3 2 5 4 3 4 2 6 2 14 8 8 5 8 6 11 14 15 12 11 12 12 12 12
28 26 25 28 29 36 44 31 19 21 6 7 13 16 27 23 20 16 3 4 4 4 5 2 3 5 3 3 1 1 3 8 1 3 11 15 16 16 15 14 13 11 11 11
24 26 25 25 26 32 39 34 27 24 4 5 10 17 25 37 24 14 18 9 11 8 4 2 3 3 5 3 1 3 1 4 6 8 10 15 14 15 13 13 13 11 11 12
23 25 28 26 27 27 30 34 32 29 9 4 7 19 23 16 23 14 7 9 6 2 2 3 3 0 4 0 4 8 7 9 5 4 10 10 13 14 12 12 12 11 12 12
23 22 25 28 30 28 23 2 23 33 22 4 3 8 10 13 16 19 11 5 1 2 1 3 4 4 2 4 2 7 14 15 18 7 8 13 12 15 13 11 10 11 11 11
22 21 21 29 30 27 7 3 7 38 23 3 3 3 4 13 10 6 6 9 2 3 1 3 3 3 3 1 3 7 11 11 14 14 9 12 15 8 11 10 9 13 14 15
22 24 28 32 24 19 4 3 8 37 11 3 3 1 2 9 4 3 2 2 2 3 1 2 3 3 3 4 8 10 12 11 15 13 9 8 6 9 10 10 9 10 10 10
30 33 35 23 5 3 5 6 33 23 4 3 3 3 3 3 3 2 3 2 2 3 2 2 3 4 5 5 7 10 11 10 11 10 12 11 10 10 10 11 12 10 10 10
44 31 5 3 4 22 24 7 2 2 2 3 2 2 3 5 4 2 2 3 3 2 3 2 3 3 6 7 9 9 10 10 11 11 10 10 9 10 10 11 11 10 10 12
9 3 2 19 32 5 2 3 3 3 4 4 3 4 4 3 3 3 3 1 3 3 3 3 3 3 4 8 9 10 11 11 12 11 10 11 9 8 9 11 12 14 15 14
8 15 15 6 2 2 3 4 3 5 4 2 5 2 2 3 1 3 3 1 2 2 3 2 3 3 7 8 9 10 10 10 11 14 12 14 14 14 13 13 14 15 15 15
11 5 3 2 1 4 5 6 3 4 2 1 2 3 2 3 1 3 1 2 2 1 1 3 4 7 7 8 7 10 13 14 14 14 15 16 17 17 15 15 15 16 17 17
3 2 4 3 3 4 4 4 4 2 2 2 4 3 2 0 3 1 2 2 2 3 5 4 6 8 7 7 8 8 9 9 10 12 14 14 15 15 16 16 15 15 16 15
4 4 4 3 2 3 1 1 2 3 2 1 4 3 3 3 3 2 3 2 2 5 4 4 6 8 7 8 7 7 7 6 8 11 12 13 14 14 16 16 16 16 16 16
4 6 3 2 6 6 6 5 5 4 2 2 1 3 3 3 2 1 4 4 4 3 5 6 7 8 8 8 8 9 11 11 11 12 12 13 12 13 14 14 15 15 14 14
3 3 5 4 6 6 4 4 3 2 2 2 2 3 3 2 3 3 5 3 6 8 7 7 9 9 8 7 9 10 11 11 11 11 11 11 10 9 10 12 10 11 11 12

GFSNW_925_spd_075.txt.gz
Wind_Speed
19 18 17 15 15 11 10 4 4 11 12 6 3 14 7 9 24 24 17 11 8 8 9 8 7 4 5 5 4 6 1 3 5 11 11 14 13 11 11 4 4 5 4 6
19 19 18 16 15 13 4 2 4 18 8 8 12 8 15 21 20 20 12 10 9 8 7 4 6 7 7 7 4 4 3 3 4 6 5 9 4 12 15 9 4 6 2 4
19 18 18 17 15 13 8 1 3 4 3 1 7 12 15 17 17 23 19 16 14 11 8 6 5 2 5 4 4 6 2 4 6 6 11 3 4 8 16 17 3 5 10 5
18 18 17 17 15 14 10 3 4 3 3 5 12 10 1 10 17 17 16 16 12 12 8 7 5 5 8 4 10 4 3 4 6 11 14 11 12 14 15 22 17 5 6 7
19 18 17 17 14 12 8 3 2 3 3 7 5 9 7 15 15 8 9 11 8 7 7 7 9 1 4 3 3 4 4 3 3 8 9 7 15 17 15 17 20 17 18 18
23 21 20 18 15 14 5 6 9 3 4 5 5 3 4 9 10 8 8 4 9 6 9 6 3 2 4 5 4 5 3 2 3 3 7 12 8 7 12 10 9 14 10 7
25 23 22 21 19 21 12 6 2 0 4 5 7 16 8 10 14 9 7 3 14 2 6 6 5 6 8 6 8 7 5 4 1 4 6 4 4 3 3 8 5 5 5 2
25 25 25 24 24 22 24 15 3 2 4 5 9 13 11 10 8 8 6 5 3 2 3 2 4 4 4 8 12 12 11 4 1 2 5 9 4 6 3 6 8 12 13 6
25 24 22 26 26 24 23 21 15 2 2 4 10 10 8 5 6 5 5 4 3 5 3 3 2 3 5 4 4 18 9 7 4 2 4 3 4 7 5 3 4 8 13 7
22 20 17 21 27 28 25 10 24 5 4 4 6 3 4 6 5 4 5 1 0 1 3 2 4 4 4 5 5 4 10 8 10 4 2 7 4 7 1 4 4 8 12 10
23 20 18 17 25 31 29 21 17 18 3 6 8 10 8 7 4 4 7 3 2 2 1 2 3 3 4 4 6 7 9 7 5 3 4 6 12 8 3 8 9 13 12 12
26 23 21 21 21 29 32 14 22 21 4 3 13 12 16 12 9 2 1 4 3 2 2 1 3 3 3 2 3 1 4 6 5 6 3 10 14 14 13 13 14 13 14 11
24 25 24 23 22 26 35 23 17 18 2 8 9 10 27 28 24 15 3 1 5 3 4 2 2 5 2 2 2 2 4 9 2 5 10 15 16 16 17 14 15 14 14 13
21 23 25 24 23 25 34 27 25 21 3 2 5 12 15 15 22 21 23 6 5 4 2 2 2 2 4 3 5 4 3 5 5 4 2 16 17 16 14 14 14 15 15 15
19 20 22 25 24 27 29 30 30 28 6 2 4 14 15 19 17 22 19 15 5 1 2 2 2 2 3 1 2 5 7 7 1 2 10 12 9 13 15 12 13 14 13 14
18 20 21 23 24 22 15 2 24 30 19 3 4 5 5 13 15 14 6 3 3 1 1 2 3 3 1 2 3 8 12 14 16 5 15 15 12 14 12 12 14 15 14 12
20 21 22 25 25 24 6 4 8 39 16 2 3 3 4 11 5 2 2 4 2 2 1 2 3 1 1 2 3 9 12 14 14 12 7 13 12 7 8 10 13 18 18 18
21 21 20 24 27 16 1 2 9 38 8 2 3 3 1 2 3 2 2 2 2 2 1 2 3 2 4 4 6 9 12 11 14 13 12 10 10 10 11 13 13 13 12 11
24 23 30 23 7 4 5 8 36 20 5 4 3 2 1 1 2 2 2 2 1 1 2 2 2 3 5 5 7 10 12 10 11 10 13 11 11 12 12 11 12 13 11 10
48 28 6 3 7 29 31 6 3 2 2 2 2 2 1 3 2 2 3 2 2 3 3 2 3 3 7 10 11 10 10 11 11 9 11 9 9 11 13 13 11 10 11 14
8 3 2 15 31 6 2 3 3 3 3 3 3 3 1 1 2 2 2 2 2 2 3 3 2 2 3 9 10 9 9 11 11 12 11 12 11 11 11 12 15 15 16 14
10 16 15 6 3 3 3 3 2 4 5 1 3 4 2 2 2 3 2 2 1 2 2 2 2 3 7 9 10 10 10 12 10 15 13 15 17 16 15 14 16 16 16 15
15 6 3 2 1 3 6 5 2 3 2 1 2 3 2 2 1 2 1 2 1 0 3 3 3 7 7 7 7 9 12 13 14 14 15 17 18 18 16 15 17 18 18 16
3 3 4 2 3 3 2 2 2 1 0 1 3 2 2 1 3 1 3 1 1 1 3 2 3 5 5 6 6 7 6 7 9 11 15 15 16 16 19 19 19 19 18 16
4 4 4 3 1 1 1 1 2 2 2 1 2 3 3 2 3 2 3 2 3 3 2 2 5 5 5 4 4 5 5 5 7 12 12 15 16 15 16 17 17 18 18 18
3 6 3 1 2 4 3 3 2 3 2 2 2 3 3 3 1 3 3 2 3 2 3 4 4 5 4 5 5 8 12 14 14 14 14 14 15 15 15 14 14 12 12 15
4 3 3 2 4 3 2 3 2 2 2 2 2 3 3 1 3 3 3 2 3 6 6 4 5 5 4 6 11 12 12 11 11 12 11 12 13 13 12 10 11 12 13 13

GFSNW_925_spd_081.txt.gz
Wind_Speed
11 11 11 12 12 9 3 1 2 3 8 1 2 6 4 3 9 5 5 5 8 4 8 11 7 4 4 3 1 4 3 3 4 9 3 5 3 2 5 3 3 4 3 5
10 11 11 11 11 6 2 1 2 7 6 3 1 4 9 6 10 11 4 5 2 4 5 6 4 4 1 3 4 4 3 3 3 6 4 2 1 1 5 6 3 6 3 5
10 11 11 12 12 6 6 1 3 3 1 2 3 5 8 7 10 13 11 10 11 13 7 17 4 2 2 4 5 7 3 3 4 3 4 1 6 8 7 5 4 4 8 10
13 13 13 14 11 6 8 2 4 4 3 2 10 4 4 9 9 10 11 4 12 8 4 11 4 3 3 5 6 3 3 3 3 6 10 11 14 15 14 15 14 7 12 12
13 12 13 12 10 7 7 2 2 2 3 4 3 1 3 11 16 5 5 12 7 6 8 7 2 2 3 3 1 3 0 1 1 4 7 7 12 18 15 14 18 16 16 18
15 15 16 13 13 13 4 5 4 2 3 4 1 2 5 11 12 9 9 2 4 4 3 3 3 3 2 2 4 3 2 2 2 4 6 11 8 4 6 9 17 15 16 16
16 16 17 17 14 18 12 7 2 2 2 3 4 8 13 14 11 3 3 2 3 4 4 4 2 2 2 3 6 5 6 3 2 3 5 3 4 6 8 12 7 10 17 15
16 17 18 18 16 17 20 11 4 1 2 2 7 9 9 11 10 7 4 2 3 9 4 2 3 3 3 4 7 10 7 4 1 2 3 8 8 3 6 7 5 11 6 19
18 19 18 16 15 16 24 18 15 2 1 4 2 3 6 4 7 7 4 6 7 3 3 2 1 1 2 3 5 3 5 2 3 1 2 4 3 0 2 8 6 16 22 18
20 19 17 16 15 16 18 11 24 4 2 4 2 3 4 3 3 3 4 8 6 3 2 2 1 2 2 3 3 3 3 2 11 7 4 6 5 8 4 4 5 11 15 15
20 19 17 16 15 13 23 14 23 15 3 4 3 4 3 4 1 1 4 4 3 3 2 1 1 2 3 2 4 3 5 5 4 3 3 8 11 6 3 4 9 11 13 15
19 19 19 17 15 13 22 6 20 26 2 4 6 15 17 11 14 3 2 2 2 3 2 1 2 2 3 3 3 3 3 3 3 4 1 8 11 13 12 8 12 11 11 11
22 21 21 19 18 17 25 15 20 13 2 4 6 9 21 22 24 14 2 2 3 2 3 2 1 4 2 2 1 4 7 6 2 4 6 10 12 14 14 15 14 14 13 12
18 16 22 21 20 20 24 17 22 17 2 2 5 6 10 8 14 24 21 5 2 1 1 2 2 3 3 1 3 3 3 11 6 5 4 5 10 12 11 15 15 15 15 14
16 15 17 20 21 22 21 23 24 26 6 3 4 13 12 14 14 16 16 11 3 1 2 2 2 2 2 2 2 3 8 5 3 3 4 7 5 9 11 16 14 13 12 14
13 13 13 16 21 22 18 2 20 28 18 2 3 4 4 1 8 9 9 7 3 3 2 3 3 3 2 1 2 5 9 12 10 3 8 10 11 13 14 15 13 13 13 13
14 13 12 17 23 26 6 3 5 34 21 2 3 4 4 2 4 3 2 6 3 2 2 2 2 3 4 2 2 7 9 11 11 6 1 10 12 7 12 14 15 18 19 18
15 15 14 18 25 21 9 4 5 29 7 2 2 4 3 0 2 2 2 3 3 2 2 1 1 2 2 3 3 6 9 6 12 12 13 11 10 12 10 12 11 12 12 11
16 16 16 19 8 4 7 12 31 11 3 4 3 2 2 3 1 3 2 2 1 2 2 1 3 2 3 3 3 6 9 8 7 8 10 10 12 11 10 10 10 11 10 9
20 20 4 2 8 27 23 11 1 1 2 3 4 2 2 2 1 2 3 2 2 2 2 3 3 2 5 6 6 5 6 8 9 3 6 6 9 9 10 10 8 9 9 11
8 3 2 12 36 7 2 3 3 3 3 3 3 4 3 2 1 4 3 2 2 2 2 2 2 3 3 4 6 6 6 8 8 8 9 10 8 7 7 8 11 11 11 11
13 15 19 9 3 2 3 3 4 4 5 2 4 3 3 2 2 2 2 2 2 2 2 3 1 3 7 5 4 6 7 8 10 12 10 12 12 11 12 11 11 11 13 14
24 6 3 3 1 3 6 6 3 3 3 4 4 3 3 0 0 1 1 2 3 2 4 2 1 7 6 5 5 5 8 10 11 10 10 10 11 12 12 12 13 14 15 14
3 3 4 2 2 2 3 3 4 1 1 4 3 2 1 1 2 1 3 3 2 3 1 3 3 6 6 5 6 7 4 7 9 9 12 13 15 15 14 13 13 14 13 11
3 2 3 1 2 0 1 1 3 2 0 2 2 2 2 1 3 2 2 3 1 3 3 2 4 5 7 6 6 5 5 6 8 12 13 14 14 15 14 12 11 12 12 12
3 5 3 1 3 2 2 2 2 2 1 1 2 3 2 2 2 3 1 1 4 2 2 2 5 5 4 5 5 9 13 13 12 12 12 12 12 12 11 9 8 8 8 7
3 2 2 2 2 2 2 2 2 4 1 2 2 3 2 2 3 1 1 3 2 2 3 3 4 6 6 7 12 12 12 12 11 10 8 9 9 8 7 7 8 8 8 7

GFSNW_925_spd_087.txt.gz
Wind_Speed
1 2 2 3 4 5 3 2 2 1 9 2 0 2 3 6 11 7 7 6 10 13 11 7 4 7 7 16 19 5 2 3 4 3 1 4 2 4 4 2 2 2 4 6
2 2 1 2 2 3 2 2 1 3 1 2 1 4 6 6 8 6 3 5 7 10 6 6 8 6 5 16 6 5 4 1 5 3 3 2 3 4 2 3 2 5 4 3
4 3 2 3 2 1 2 2 2 2 0 1 2 3 6 5 6 11 8 11 10 15 9 10 7 7 8 10 6 7 2 3 1 3 5 3 2 3 2 3 3 5 10 17
4 4 4 3 2 5 4 2 1 1 2 1 3 2 3 9 8 4 9 6 15 13 4 5 6 5 7 6 10 3 3 4 4 2 4 3 3 6 6 7 12 7 16 16
5 5 5 3 6 9 4 3 1 2 4 4 0 3 3 9 8 5 9 9 17 12 9 9 6 2 4 4 5 5 4 2 2 2 1 4 6 11 10 10 10 13 17 20
7 8 7 5 11 7 3 3 3 1 3 2 1 2 4 10 14 11 13 18 16 12 12 8 12 8 10 7 6 2 2 3 2 3 2 7 4 1 4 7 8 9 13 14
6 6 7 8 12 11 6 5 4 2 4 3 4 8 13 13 14 13 17 10 9 2 7 10 7 8 11 11 5 1 3 3 1 2 4 1 2 8 3 5 12 11 13 17
9 9 9 8 9 15 14 9 5 2 3 4 10 9 8 10 10 8 4 8 6 11 4 2 2 1 2 3 2 3 2 3 2 1 1 4 2 4 5 9 15 14 13 18
8 8 8 8 8 10 21 17 13 3 1 2 4 5 9 7 9 9 5 12 6 4 2 1 0 1 2 2 2 7 4 2 2 1 2 2 2 10 11 8 3 15 14 18
10 9 9 9 9 9 18 8 21 5 2 3 3 2 4 4 4 6 6 13 7 5 4 3 3 2 2 2 2 1 2 1 3 2 2 5 10 15 10 3 5 9 15 13
11 11 11 11 10 10 15 6 21 10 3 4 6 3 4 5 3 5 9 6 4 5 7 4 3 2 3 3 3 3 1 2 2 2 3 3 14 5 5 3 2 8 11 14
12 12 12 10 10 11 14 5 13 18 2 3 4 15 19 13 12 2 2 2 3 3 3 3 3 2 2 2 1 5 2 4 3 4 3 6 8 9 9 11 7 10 10 11
12 12 12 11 11 12 14 8 12 9 2 6 4 6 10 13 21 19 2 2 1 0 0 2 2 3 1 2 2 3 7 8 2 2 6 10 12 11 12 11 11 13 12 11
13 14 13 13 13 14 16 14 14 9 3 2 5 7 10 4 3 17 24 11 3 2 2 2 2 3 2 2 3 3 3 7 7 2 8 7 13 12 10 11 10 13 13 13
13 13 15 15 16 18 17 16 15 18 3 2 5 14 6 6 5 12 15 11 5 1 2 2 2 2 2 3 3 3 5 4 3 3 4 9 8 10 11 11 12 12 12 15
12 14 13 14 9 21 14 1 15 22 9 1 3 5 3 5 3 7 5 4 3 2 2 3 2 1 3 2 2 3 5 6 11 3 11 12 11 10 10 11 11 12 13 16
12 12 11 9 17 26 6 3 1 25 18 2 3 4 2 1 3 2 1 3 2 2 2 2 2 2 3 2 2 4 6 7 10 6 10 9 12 6 8 11 14 17 19 19
13 10 8 8 20 18 7 1 10 27 6 2 2 4 3 3 1 1 2 2 2 2 2 2 0 1 2 3 5 6 7 6 10 11 12 12 10 10 10 12 13 13 13 14
13 9 6 17 8 5 9 13 21 10 3 2 2 2 2 1 2 1 1 1 2 1 2 1 0 1 3 3 5 6 7 5 3 8 10 10 11 10 10 11 11 13 12 12
12 15 4 2 6 27 26 4 2 1 2 2 3 1 2 2 1 1 0 1 2 2 2 3 2 2 6 7 6 5 5 7 6 4 7 8 9 9 10 11 11 11 11 12
5 3 2 7 26 5 2 3 3 3 3 3 2 5 2 1 2 2 3 1 1 2 2 1 2 2 3 7 6 6 7 9 10 10 9 9 8 9 10 10 12 13 13 13
11 13 11 9 2 2 3 3 3 4 4 3 4 5 4 2 2 2 3 2 2 2 1 1 2 3 9 7 7 7 8 10 11 10 11 12 13 13 14 13 13 12 13 14
11 4 3 3 3 4 7 7 4 3 3 4 3 4 3 2 1 2 2 2 1 2 1 1 1 7 7 7 7 8 10 11 13 13 14 15 16 15 15 14 15 16 17 14
2 4 6 5 3 4 5 4 4 2 3 6 4 3 2 2 3 1 2 0 1 1 2 2 5 8 8 6 6 8 7 10 12 12 14 15 17 16 15 15 14 15 14 11
2 3 5 5 2 1 2 2 3 1 4 4 4 2 1 1 1 1 2 2 3 3 2 2 5 9 8 7 8 8 7 8 10 12 14 15 16 16 14 12 13 14 13 12
1 3 3 2 3 2 2 2 3 1 2 2 2 2 2 2 2 3 4 4 4 2 2 3 7 6 6 7 7 10 13 14 14 14 13 12 13 12 11 10 9 8 7 7
3 0 1 3 2 3 2 1 1 2 1 2 2 3 3 2 1 2 2 3 1 3 4 4 5 8 8 9 11 13 13 13 12 11 10 10 9 8 6 5 4 4 4 4